When you browse on this site, cookies collect data to enhance your experience and personalize the content and advertising you see.
Visit our Privacy Policy to learn more. By continuing to use the site, you agree to this use of cookies and data.
  • En España
  • Lista de países
  • Para 7 días
  • Temperatura del agua
  • El tiempo en el mapa
  • Informadores
  • user-avatar
    Iniciar sesión

    Tiempo cada hora Bishops Stortford

    Hoy, 13 Noviembre, Miércoles

    Tiempo Temperatura Precipitaciones Viento Presión Humedad
    00:00 +3°C° 0 mm 5 mps 742 mmHg 88%
    01:00 +3°C° 0 mm 4 mps 742 mmHg 90%
    02:00 +3°C° 0 mm 4 mps 742 mmHg 91%
    03:00 +3°C° 0 mm 4 mps 742 mmHg 92%
    04:00 +2°C° 0 mm 3 mps 743 mmHg 93%
    05:00 +2°C° 0 mm 3 mps 743 mmHg 93%
    06:00 +2°C° 0 mm 3 mps 743 mmHg 94%
    07:00 +2°C° 0 mm 3 mps 743 mmHg 93%
    08:00 +3°C° 0 mm 3 mps 743 mmHg 92%
    09:00 +4°C° 0 mm 2 mps 743 mmHg 91%
    10:00 +5°C° 0 mm 2 mps 743 mmHg 87%
    11:00 +5°C° 0 mm 3 mps 743 mmHg 84%
    12:00 +5°C° 0 mm 3 mps 742 mmHg 81%
    13:00 +5°C° 0 mm 3 mps 742 mmHg 81%
    14:00 +5°C° 0 mm 3 mps 741 mmHg 81%
    15:00 +6°C° 0 mm 2 mps 740 mmHg 81%
    16:00 +5°C° 0 mm 3 mps 740 mmHg 82%
    17:00 +4°C° 0 mm 3 mps 739 mmHg 84%
    18:00 +4°C° 0 mm 3 mps 738 mmHg 85%
    19:00 +4°C° 0 mm 3 mps 738 mmHg 84%
    20:00 +4°C° 0 mm 3 mps 737 mmHg 83%
    21:00 +4°C° 0 mm 3 mps 736 mmHg 83%
    22:00 +4°C° 0 mm 4 mps 736 mmHg 84%
    23:00 +4°C° 0 mm 4 mps 736 mmHg 85%

    Mañana, 14 Noviembre, Jueves

    Tiempo Temperatura Precipitaciones Viento Presión Humedad
    00:00 +4°C° 0 mm 4 mps 735 mmHg 86%
    01:00 +3°C° 0.3 mm 5 mps 735 mmHg 87%
    02:00 +5°C° 0.3 mm 5 mps 735 mmHg 88%
    03:00 +4°C° 0.3 mm 6 mps 735 mmHg 89%
    04:00 +5°C° 0.9 mm 5 mps 735 mmHg 89%
    05:00 +3°C° 0.9 mm 5 mps 735 mmHg 90%
    06:00 +4°C° 0.9 mm 4 mps 736 mmHg 91%
    07:00 +4°C° 0.2 mm 4 mps 736 mmHg 89%
    08:00 +4°C° 0.2 mm 3 mps 737 mmHg 88%
    09:00 +3°C° 0.2 mm 3 mps 738 mmHg 86%
    10:00 +5°C° 0 mm 2 mps 738 mmHg 82%
    11:00 +6°C° 0 mm 2 mps 739 mmHg 78%
    12:00 +8°C° 0 mm 1 mps 739 mmHg 74%
    13:00 +8°C° 0 mm 1 mps 739 mmHg 76%
    14:00 +6°C° 0 mm 2 mps 740 mmHg 78%
    15:00 +6°C° 0 mm 2 mps 740 mmHg 80%
    16:00 +6°C° 0 mm 2 mps 741 mmHg 83%
    17:00 +5°C° 0 mm 2 mps 741 mmHg 86%
    18:00 +4°C° 0 mm 2 mps 742 mmHg 89%
    19:00 +5°C° 0 mm 1 mps 743 mmHg 90%
    20:00 +5°C° 0 mm 1 mps 743 mmHg 90%
    21:00 +5°C° 0 mm 1 mps 744 mmHg 91%
    22:00 +5°C° 0 mm 1 mps 744 mmHg 90%
    23:00 +4°C° 0 mm 1 mps 745 mmHg 90%

    Pasado mañana, 15 Noviembre, Viernes

    Tiempo Temperatura Precipitaciones Viento Presión Humedad
    00:00 +4°C° 0 mm 1 mps 745 mmHg 90%
    01:00 +4°C° 0.1 mm 1 mps 745 mmHg 90%
    02:00 +3°C° 0.1 mm 2 mps 746 mmHg 89%
    03:00 +3°C° 0.1 mm 2 mps 746 mmHg 89%
    04:00 +3°C° 0 mm 2 mps 746 mmHg 89%
    05:00 +2°C° 0 mm 3 mps 747 mmHg 90%
    06:00 +2°C° 0 mm 3 mps 747 mmHg 90%
    07:00 +2°C° 0 mm 3 mps 747 mmHg 88%
    08:00 +3°C° 0 mm 4 mps 748 mmHg 87%
    09:00 +3°C° 0 mm 4 mps 748 mmHg 86%
    10:00 +4°C° 0 mm 4 mps 748 mmHg 84%
    11:00 +5°C° 0 mm 5 mps 747 mmHg 82%
    12:00 +6°C° 0 mm 5 mps 747 mmHg 80%
    13:00 +6°C° 0.4 mm 5 mps 747 mmHg 81%
    14:00 +6°C° 0.4 mm 5 mps 746 mmHg 81%
    15:00 +6°C° 0.4 mm 5 mps 745 mmHg 81%
    16:00 +5°C° 0.2 mm 6 mps 745 mmHg 83%
    17:00 +4°C° 0.2 mm 6 mps 745 mmHg 85%
    18:00 +4°C° 0.2 mm 7 mps 745 mmHg 87%
    19:00 +4°C° 2 mm 8 mps 744 mmHg 88%
    20:00 +4°C° 2 mm 8 mps 744 mmHg 90%
    21:00 +3°C° 2 mm 9 mps 744 mmHg 91%
    22:00 +4°C° 0.6 mm 8 mps 743 mmHg 90%
    23:00 +4°C° 0.6 mm 6 mps 743 mmHg 89%

    16 Noviembre, Sábado

    Tiempo Temperatura Precipitaciones Viento Presión Humedad
    00:00 +3°C° 0.6 mm 5 mps 743 mmHg 88%
    01:00 +3°C° 0.1 mm 5 mps 743 mmHg 88%
    02:00 +3°C° 0.1 mm 5 mps 742 mmHg 87%
    03:00 +3°C° 0.1 mm 5 mps 742 mmHg 87%
    04:00 +3°C° 0 mm 5 mps 742 mmHg 88%
    05:00 +3°C° 0 mm 5 mps 742 mmHg 89%
    06:00 +3°C° 0 mm 5 mps 743 mmHg 89%
    07:00 +3°C° 0.1 mm 5 mps 743 mmHg 89%
    08:00 +3°C° 0.1 mm 5 mps 743 mmHg 89%
    09:00 +3°C° 0.1 mm 5 mps 744 mmHg 89%
    10:00 +5°C° 0.1 mm 4 mps 744 mmHg 86%
    11:00 +6°C° 0.1 mm 4 mps 744 mmHg 83%
    12:00 +8°C° 0.1 mm 3 mps 744 mmHg 80%
    13:00 +8°C° 0.1 mm 3 mps 744 mmHg 81%
    14:00 +8°C° 0.1 mm 2 mps 744 mmHg 82%
    15:00 +7°C° 0.1 mm 2 mps 744 mmHg 83%
    16:00 +7°C° 0 mm 2 mps 744 mmHg 85%
    17:00 +6°C° 0 mm 2 mps 744 mmHg 87%
    18:00 +5°C° 0 mm 2 mps 745 mmHg 90%
    19:00 +5°C° 0 mm 2 mps 745 mmHg 90%
    20:00 +5°C° 0 mm 2 mps 745 mmHg 91%
    21:00 +4°C° 0 mm 2 mps 745 mmHg 92%
    22:00 +5°C° 0 mm 1 mps 745 mmHg 92%
    23:00 +5°C° 0 mm 1 mps 745 mmHg 93%

    17 Noviembre, Domingo

    Tiempo Temperatura Precipitaciones Viento Presión Humedad
    00:00 +5°C° 0 mm 1 mps 745 mmHg 93%
    01:00 +4°C° 0 mm 2 mps 745 mmHg 93%
    02:00 +4°C° 0 mm 2 mps 745 mmHg 93%
    03:00 +4°C° 0 mm 2 mps 745 mmHg 93%
    04:00 +4°C° 0 mm 2 mps 746 mmHg 93%
    05:00 +4°C° 0 mm 2 mps 746 mmHg 93%
    06:00 +4°C° 0 mm 2 mps 746 mmHg 93%
    07:00 +4°C° 0 mm 2 mps 746 mmHg 93%
    08:00 +4°C° 0 mm 2 mps 747 mmHg 93%
    09:00 +4°C° 0 mm 2 mps 747 mmHg 92%
    10:00 +5°C° 0 mm 2 mps 747 mmHg 89%
    11:00 +6°C° 0 mm 2 mps 747 mmHg 86%
    12:00 +7°C° 0 mm 2 mps 748 mmHg 83%
    13:00 +7°C° 0 mm 2 mps 748 mmHg 84%
    14:00 +7°C° 0 mm 2 mps 748 mmHg 86%
    15:00 +7°C° 0 mm 2 mps 748 mmHg 87%
    16:00 +6°C° 0 mm 2 mps 748 mmHg 89%
    17:00 +5°C° 0 mm 2 mps 748 mmHg 92%
    18:00 +4°C° 0 mm 2 mps 748 mmHg 94%
    19:00 +4°C° 0 mm 2 mps 748 mmHg 94%
    20:00 +4°C° 0 mm 2 mps 749 mmHg 94%
    21:00 +5°C° 0 mm 1 mps 749 mmHg 94%
    22:00 +4°C° 0 mm 2 mps 749 mmHg 94%
    23:00 +4°C° 0 mm 2 mps 749 mmHg 93%

    18 Noviembre, Lunes

    Tiempo Temperatura Precipitaciones Viento Presión Humedad
    00:00 +4°C° 0 mm 2 mps 749 mmHg 92%
    01:00 +4°C° 0 mm 2 mps 749 mmHg 92%
    02:00 +4°C° 0 mm 2 mps 749 mmHg 91%
    03:00 +4°C° 0 mm 2 mps 749 mmHg 90%
    04:00 +4°C° 0 mm 2 mps 749 mmHg 90%
    05:00 +5°C° 0 mm 1 mps 749 mmHg 90%
    06:00 +5°C° 0 mm 1 mps 749 mmHg 89%
    07:00 +5°C° 0.1 mm 1 mps 749 mmHg 90%
    08:00 +5°C° 0.1 mm 1 mps 749 mmHg 90%
    09:00 +6°C° 0.1 mm 1 mps 749 mmHg 90%
    10:00 +6°C° 0 mm 1 mps 749 mmHg 87%
    11:00 +7°C° 0 mm 1 mps 749 mmHg 84%
    12:00 +7°C° 0 mm 2 mps 749 mmHg 81%
    13:00 +8°C° 0 mm 1 mps 749 mmHg 82%
    14:00 +7°C° 0 mm 1 mps 748 mmHg 82%
    15:00 +7°C° 0 mm 1 mps 748 mmHg 83%
    16:00 +7°C° 0 mm 1 mps 748 mmHg 85%
    17:00 +5°C° 0 mm 2 mps 748 mmHg 88%
    18:00 +4°C° 0 mm 2 mps 748 mmHg 90%
    19:00 +4°C° 0 mm 2 mps 748 mmHg 90%
    20:00 +4°C° 0 mm 2 mps 748 mmHg 90%
    21:00 +3°C° 0 mm 3 mps 748 mmHg 89%
    22:00 +4°C° 0.2 mm 3 mps 747 mmHg 89%
    23:00 +4°C° 0.2 mm 4 mps 747 mmHg 89%
    Mostrar más